Weather History for Goodland, KS

Change the Weather History Date:

Sunday, May 18, 2014

  Actual Average Record
Temperature  
Mean Temperature 62 °F 60 °F  
Max Temperature 79 °F 74 °F 98 °F (1996)
Min Temperature 45 °F 47 °F 29 °F (1930)
Degree Days  
Heating Degree Days 3 6  
Month to date heating degree days 203 153  
Since 1 July heating degree days 5952 5808  
Cooling Degree Days 0 1  
Month to date cooling degree days 0 16  
Year to date cooling degree days 5 20  
Growing Degree Days 12 (Base 50)    
Moisture  
Dew Point 47 °F    
Average Humidity 65    
Maximum Humidity 93    
Minimum Humidity 37    
Precipitation  
Precipitation 0.00 in 0.10 in 1.10 in (1981)
Month to date precipitation 0.20 1.53  
Year to date precipitation 1.99 5.06  
Snow  
Snow 0.00 in 0.00 in - ()
Month to date snowfall T 0.5  
Since 1 July snowfall 29.1 35.5  
Snow Depth 0.00 in    
Sea Level Pressure  
Sea Level Pressure 29.82 in    
Wind  
Wind Speed 26 mph (South)    
Max Wind Speed 37 mph    
Max Gust Speed 45 mph    
Visibility 10 miles    
Events      
T = Trace of Precipitation, MM = Missing Value Source: NWS Daily Summary

Daily Weather History Graph

Daily Weather History Graph

Search for Another Location

Airport:

Trip Planner

Search our weather history database for the weather conditions in past years. The results will help you decide how hot, cold, wet, or windy it might be!

Date:

Astronomy

May. 18, 2014 Rise Set
Actual Time 5:30 AM MDT 7:56 PM MDT
Civil Twilight 4:59 AM MDT 8:27 PM MDT
Nautical Twilight 4:22 AM MDT 9:05 PM MDT
Astronomical Twilight 3:40 AM MDT 9:47 PM MDT
Moon 11:46 PM MDT (5/18) 9:21 AM MDT (5/18)
Length of Visible Light 15h 27m
Length of Day
14h 25m
Waning Gibbous, 80% of the Moon is Illuminated
May 18
Waning Gibbous
May 21
Last Quarter
May 28
New
Jun 5
First Quarter
Jun 12
Full

Hourly Weather History & Observations

Time (MDT) Temp. Windchill Dew Point Humidity Pressure Visibility Wind Dir Wind Speed Gust Speed Precip Events Conditions
12:53 AM 48.0 °F - 42.1 °F 80% 30.04 in 10.0 mi SSE 23.0 mph - N/A   Clear
1:53 AM 46.9 °F - 41.0 °F 80% 30.01 in 10.0 mi SSE 24.2 mph 33.4 mph N/A   Clear
2:53 AM 46.0 °F 37.8 °F 39.9 °F 79% 29.99 in 10.0 mi South 23.0 mph 29.9 mph N/A   Clear
3:53 AM 45.0 °F 35.8 °F 39.9 °F 82% 29.96 in 10.0 mi South 26.5 mph 36.8 mph N/A   Clear
4:53 AM 45.0 °F 35.6 °F 39.9 °F 82% 29.94 in 10.0 mi South 27.6 mph 35.7 mph N/A   Clear
5:53 AM 45.0 °F 36.4 °F 42.1 °F 90% 29.95 in 10.0 mi South 23.0 mph 33.4 mph N/A   Clear
6:26 AM 46.0 °F 38.0 °F 43.0 °F 89% 29.99 in 10.0 mi South 21.9 mph - N/A   Mostly Cloudy
6:33 AM 46.0 °F 37.6 °F 43.0 °F 89% 29.99 in 10.0 mi South 24.2 mph 31.1 mph N/A   Partly Cloudy
6:53 AM 46.9 °F - 44.1 °F 90% 29.94 in 10.0 mi South 21.9 mph 31.1 mph N/A   Clear
7:41 AM 50.0 °F - 46.0 °F 86% 29.98 in 10.0 mi South 27.6 mph 34.5 mph N/A   Mostly Cloudy
7:53 AM 50.0 °F - 46.9 °F 89% 29.94 in 10.0 mi South 26.5 mph 34.5 mph N/A   Mostly Cloudy
8:53 AM 54.0 °F - 48.0 °F 80% 29.91 in 10.0 mi South 32.2 mph 41.4 mph N/A   Overcast
9:16 AM 55.9 °F - 48.9 °F 77% 29.94 in 10.0 mi South 33.4 mph 39.1 mph N/A   Mostly Cloudy
9:28 AM 57.0 °F - 48.9 °F 74% 29.94 in 10.0 mi South 27.6 mph 41.4 mph N/A   Scattered Clouds
9:53 AM 60.1 °F - 50.0 °F 69% 29.88 in 10.0 mi South 33.4 mph 42.6 mph N/A   Partly Cloudy
10:53 AM 64.9 °F - 50.0 °F 58% 29.84 in 10.0 mi South 33.4 mph 41.4 mph N/A   Clear
11:53 AM 70.0 °F - 48.9 °F 47% 29.81 in 10.0 mi South 31.1 mph 39.1 mph N/A   Clear
12:53 PM 73.9 °F - 50.0 °F 43% 29.77 in 10.0 mi South 27.6 mph 34.5 mph N/A   Clear
1:53 PM 75.9 °F - 48.9 °F 38% 29.74 in 10.0 mi South 24.2 mph 31.1 mph N/A   Clear
2:53 PM 77.0 °F - 50.0 °F 39% 29.71 in 10.0 mi South 28.8 mph 38.0 mph N/A   Clear
3:53 PM 78.1 °F - 50.0 °F 37% 29.69 in 10.0 mi South 31.1 mph 36.8 mph N/A   Clear
4:53 PM 75.9 °F - 48.9 °F 38% 29.69 in 10.0 mi South 27.6 mph 36.8 mph N/A   Clear
5:53 PM 75.0 °F - 51.1 °F 43% 29.68 in 10.0 mi SSE 25.3 mph 36.8 mph N/A   Clear
6:53 PM 73.0 °F - 51.1 °F 46% 29.65 in 10.0 mi South 25.3 mph 32.2 mph N/A   Clear
7:53 PM 68.0 °F - 52.0 °F 56% 29.65 in 10.0 mi SSE 21.9 mph 29.9 mph N/A   Clear
8:53 PM 66.0 °F - 52.0 °F 60% 29.64 in 10.0 mi SSE 21.9 mph 29.9 mph N/A   Clear
9:53 PM 64.0 °F - 51.1 °F 63% 29.62 in 10.0 mi SSE 20.7 mph - N/A   Clear
10:53 PM 64.0 °F - 51.1 °F 63% 29.58 in 10.0 mi SSE 19.6 mph - N/A   Clear
11:53 PM 63.0 °F - 52.0 °F 67% 29.57 in 10.0 mi South 19.6 mph - N/A   Clear